Wind_Speed
25 27 28 33 36 38 42 48 52 58 63 63 65 63 66 66 65 60 57 45 38 38 47 53 55 66 73 81 91 96 96 88 82 79 74 75 77 71 65 66 64 61 59 57 54
26 29 28 35 37 39 42 49 54 59 64 64 67 65 71 71 70 65 59 46 35 29 35 45 52 56 69 79 85 89 91 93 89 83 82 74 76 75 69 58 59 65 62 62 59
30 30 29 34 39 41 43 49 55 62 65 65 69 68 72 75 74 69 64 50 35 25 25 32 43 51 60 74 82 84 86 92 91 87 84 78 72 75 72 68 59 54 57 67 63
28 29 31 34 40 41 44 50 55 62 67 68 69 70 72 78 78 72 68 60 40 27 19 22 31 41 53 66 79 83 86 90 91 91 88 83 77 74 72 70 69 62 58 53 59
26 33 32 33 39 42 45 48 54 62 68 70 68 72 76 78 79 76 72 68 51 33 23 16 21 31 44 59 71 80 85 89 91 95 92 85 79 75 76 74 68 69 60 55 54
25 30 32 36 40 42 46 49 54 60 68 70 69 71 75 78 81 78 77 74 63 44 28 17 15 22 35 50 64 74 86 87 89 97 95 88 82 76 77 66 63 67 65 60 54
26 28 33 35 42 42 44 49 56 59 67 71 71 72 74 77 81 83 80 76 73 58 38 24 14 16 26 40 58 70 85 88 89 96 96 90 84 79 74 67 76 58 60 59 60
28 31 33 34 37 41 44 49 55 58 66 70 72 72 74 74 78 82 80 81 77 71 50 33 19 10 17 30 50 67 82 87 90 95 95 90 84 83 75 80 62 66 69 61 55
28 32 32 34 37 40 43 47 51 56 63 68 70 69 69 70 77 80 82 81 79 77 67 45 28 13 9 22 40 62 76 87 90 94 95 90 88 84 81 78 73 69 70 57 57
29 29 31 32 36 40 42 44 47 54 60 67 65 67 67 69 74 75 79 78 80 77 76 63 39 20 6 14 30 53 69 85 89 91 93 91 91 87 82 78 78 59 62 72 70
30 30 29 30 35 38 40 42 45 51 58 64 62 63 64 66 71 71 74 76 76 80 77 75 55 30 12 6 22 40 61 77 87 91 89 91 93 90 85 82 82 74 60 67 67
31 29 28 30 36 37 39 41 44 51 57 62 60 57 61 62 64 68 69 74 73 74 76 76 72 50 22 4 13 30 51 66 83 91 89 90 93 91 86 81 77 78 70 78 65
28 32 33 34 37 36 39 41 43 47 53 59 57 57 58 60 60 65 64 69 71 69 74 73 70 67 45 15 4 20 38 58 73 85 89 89 92 91 88 85 88 68 69 71 68
30 31 33 36 37 38 40 41 41 46 50 53 53 54 55 57 54 58 58 61 66 67 69 68 68 65 64 42 10 10 28 48 64 78 89 90 93 93 92 90 88 77 66 49 58
30 34 32 36 36 39 39 42 40 44 47 49 48 52 54 55 54 56 55 56 61 64 66 65 65 62 60 58 40 8 17 35 55 71 83 92 93 95 94 92 87 85 72 71 77
36 33 31 32 35 37 39 41 43 45 47 49 49 50 52 54 55 55 54 56 57 61 63 62 61 59 56 54 52 37 7 23 41 60 74 88 93 99 98 99 96 95 88 76 71
31 31 30 33 34 37 40 40 41 45 45 48 48 47 50 53 54 53 54 52 54 59 61 62 58 54 54 50 47 46 34 8 28 46 65 78 90 101 101 101 102 101 100 102 88
33 34 38 36 34 37 38 41 43 44 45 45 46 47 49 52 52 52 51 48 50 52 58 58 55 51 50 49 44 41 42 34 8 32 49 67 81 97 101 103 104 102 103 101 99
35 35 40 39 38 39 41 45 47 45 44 44 48 46 48 49 51 51 51 49 50 50 53 58 52 48 47 46 44 40 37 37 34 6 34 50 71 92 101 103 104 104 98 96 102
34 35 38 38 40 41 44 42 43 44 42 47 49 49 48 48 51 50 48 48 45 52 53 55 50 46 43 42 40 39 36 33 33 32 5 32 55 81 95 100 104 105 104 105 98
34 34 37 38 44 46 42 41 42 45 45 49 49 49 47 46 49 51 49 48 45 47 55 53 50 42 41 37 34 33 35 34 28 26 26 6 28 58 83 94 103 107 108 107 100
36 37 37 44 45 46 38 45 48 50 48 48 50 51 48 48 50 53 51 47 43 47 54 50 46 43 38 38 31 32 32 32 31 26 20 19 12 26 57 85 97 108 110 111 106
39 40 38 41 44 46 47 49 53 53 49 50 52 53 54 52 50 50 51 51 47 49 52 48 46 36 35 38 37 31 32 29 28 30 25 18 16 14 20 52 82 102 109 111 111
38 40 45 46 46 46 45 51 53 55 53 55 55 56 57 54 52 51 50 52 52 52 58 51 48 40 32 29 33 33 32 33 30 27 26 26 18 14 14 13 45 77 98 113 116
37 41 46 52 54 55 53 56 59 57 57 57 58 61 62 55 53 60 54 55 55 56 60 48 42 36 37 31 32 33 34 33 31 29 28 25 25 18 16 17 14 34 65 91 110
50 46 47 50 52 54 55 56 58 59 57 61 64 66 63 56 57 61 57 56 54 57 55 44 35 32 37 38 35 39 35 33 31 34 32 30 26 24 23 21 19 18 24 51 80
54 53 51 54 56 57 60 61 59 61 64 68 66 63 59 62 64 63 59 57 56 64 51 46 43 41 41 43 43 44 44 39 39 35 32 33 35 27 28 27 23 19 19 18 39
Wind_Direction
354 353 354 355 355 352 354 354 353 353 353 351 352 349 349 346 342 337 336 321 303 279 262 255 244 234 229 226 228 227 227 227 228 226 223 222 225 226 225 230 233 237 238 235 235
342 349 349 352 355 351 350 350 350 352 352 353 353 351 353 353 351 349 343 335 321 289 264 250 242 233 226 222 223 223 223 223 224 225 226 221 222 223 223 224 227 228 233 236 235
344 345 346 346 354 351 348 349 349 353 352 354 353 353 356 357 358 356 353 349 338 313 280 252 241 231 223 221 220 219 217 220 220 222 223 222 221 224 224 220 217 219 231 231 233
336 340 342 343 349 348 350 348 349 352 354 355 355 357 358 0 1 2 0 0 352 340 311 265 245 231 224 220 218 215 214 215 217 218 221 220 218 220 223 222 219 214 224 227 230
329 340 339 340 345 347 347 347 347 349 354 356 357 360 1 1 3 7 5 5 3 355 343 296 252 237 225 218 216 212 211 212 212 216 218 219 217 216 217 221 220 218 217 223 227
320 334 334 337 342 344 347 346 349 348 353 356 357 360 2 4 5 9 11 7 8 4 358 337 270 238 226 218 214 210 209 209 209 214 216 217 215 214 215 219 228 222 219 226 226
320 327 334 334 337 342 345 344 346 348 352 355 358 360 3 7 6 10 14 11 10 11 5 356 318 252 227 217 211 207 206 206 207 212 214 216 213 215 215 209 215 216 232 222 225
317 328 329 331 336 338 342 343 344 346 350 354 357 1 2 5 7 10 13 15 12 14 13 6 353 298 234 218 209 206 204 204 206 210 212 214 212 213 211 209 213 223 219 229 222
315 324 325 327 332 337 339 342 342 345 347 352 357 360 1 4 8 10 12 15 15 15 16 16 8 348 252 216 209 206 204 202 205 208 211 212 212 212 210 213 207 223 226 221 219
316 323 322 326 330 334 339 340 339 341 343 350 357 359 0 4 8 10 12 14 18 18 18 18 15 8 321 216 207 206 204 203 204 208 209 211 211 212 210 210 212 213 227 223 225
319 319 318 322 329 331 334 339 337 338 341 347 355 358 2 3 7 9 12 14 16 20 20 21 19 17 9 226 209 207 205 205 205 207 208 209 212 213 212 209 211 212 222 231 227
312 310 314 322 330 329 332 340 337 339 341 346 352 356 2 3 5 8 10 13 15 17 19 21 22 23 17 348 208 208 207 205 206 208 208 209 212 213 212 210 207 215 214 224 230
310 313 318 323 325 328 331 336 336 337 341 345 347 355 0 2 3 6 9 12 13 15 17 18 23 25 24 14 234 209 211 208 206 207 209 209 211 213 214 210 210 212 220 223 234
310 310 319 319 322 322 329 333 333 335 341 345 345 352 358 3 3 7 9 11 13 13 16 18 20 25 28 25 5 220 211 214 210 208 209 211 211 212 214 214 214 209 220 206 233
309 312 319 316 319 323 327 334 330 335 339 346 345 352 356 3 6 6 8 11 10 11 12 15 18 20 25 30 27 347 220 214 216 213 211 212 211 213 215 216 213 210 205 209 218
300 311 315 315 315 321 326 330 329 331 339 343 343 346 354 359 2 5 7 7 9 8 9 9 12 16 19 24 30 29 328 224 215 218 216 213 212 214 215 216 215 208 205 213 215
306 307 303 307 314 318 323 329 327 327 334 339 341 344 350 355 357 358 359 2 8 8 5 6 7 10 15 17 24 30 28 317 227 217 218 218 214 215 217 218 217 214 214 215 218
293 296 303 303 310 315 318 322 321 322 329 337 340 341 343 350 355 355 357 357 359 3 7 2 3 5 8 13 15 22 28 27 320 227 220 218 217 217 219 219 220 218 218 223 223
285 295 305 300 301 310 318 319 319 316 328 335 337 338 337 344 350 353 352 355 358 356 358 2 357 1 4 7 10 15 21 27 28 320 227 221 217 219 221 220 220 221 219 218 222
291 295 302 302 300 312 317 313 311 311 323 329 330 335 335 336 342 346 349 350 351 355 353 353 356 352 358 2 5 9 13 20 28 31 340 227 222 221 224 223 222 221 222 222 222
286 290 298 296 302 306 312 305 304 307 317 325 328 330 331 331 337 339 344 343 343 348 348 347 347 347 348 355 358 4 8 8 17 30 35 5 229 226 228 227 225 225 225 224 225
287 290 292 299 306 309 307 302 303 304 307 319 321 326 327 328 330 331 335 340 339 347 345 341 342 338 338 344 350 350 349 0 4 11 20 30 13 237 228 230 230 228 230 229 228
282 288 288 293 298 301 299 297 300 306 311 314 316 319 321 323 332 327 329 334 334 339 342 334 332 329 332 335 342 343 343 344 349 355 360 3 10 16 244 233 230 231 232 233 233
286 282 283 291 293 297 297 298 301 307 307 309 311 314 316 317 323 325 326 328 331 334 338 333 327 325 318 326 330 343 341 337 336 343 347 353 349 349 0 275 237 236 233 232 233
291 286 284 286 289 294 297 297 301 302 304 305 308 311 312 313 319 321 320 324 329 330 332 330 327 322 319 317 318 326 337 335 330 332 330 333 348 343 337 346 319 248 237 237 235
287 287 289 292 292 293 295 301 304 305 303 301 303 307 310 310 312 315 315 322 321 322 325 323 325 325 316 322 321 322 326 327 326 322 320 320 328 336 349 337 334 326 259 241 237
281 285 285 289 293 293 298 303 301 301 301 302 304 308 308 308 309 311 316 317 314 315 315 318 325 327 320 325 320 315 321 320 318 316 311 309 310 316 327 329 330 322 325 280 249
Height
10772 10768 10763 10758 10752 10747 10740 10732 10724 10714 10704 10692 10679 10664 10648 10628 10606 10580 10560 10543 10529 10522 10518 10518 10525 10533 10544 10555 10568 10588 10609 10638 10656 10667 10678 10686 10698 10710 10720 10729 10738 10745 10751 10758 10764
10769 10765 10760 10755 10749 10743 10736 10728 10719 10709 10697 10684 10671 10656 10638 10617 10593 10569 10549 10529 10516 10507 10502 10501 10505 10513 10524 10535 10548 10567 10596 10618 10632 10651 10659 10675 10686 10698 10709 10719 10728 10735 10739 10748 10754
10766 10761 10756 10752 10745 10739 10732 10724 10715 10703 10691 10678 10663 10647 10629 10608 10585 10563 10540 10521 10507 10497 10491 10488 10492 10496 10507 10518 10533 10552 10580 10595 10618 10635 10646 10664 10678 10690 10699 10707 10717 10723 10728 10736 10743
10762 10758 10753 10748 10741 10735 10727 10720 10710 10699 10687 10673 10657 10641 10623 10603 10582 10558 10536 10516 10500 10489 10483 10479 10480 10484 10493 10503 10517 10538 10558 10580 10601 10620 10631 10647 10663 10678 10688 10697 10706 10712 10720 10727 10733
10758 10754 10749 10743 10737 10731 10723 10715 10706 10695 10683 10668 10653 10635 10617 10599 10579 10557 10535 10515 10498 10486 10478 10473 10472 10475 10481 10490 10504 10526 10543 10562 10584 10604 10616 10635 10654 10668 10678 10686 10694 10703 10711 10717 10723
10754 10750 10745 10740 10734 10727 10719 10711 10702 10691 10679 10665 10650 10633 10616 10597 10578 10557 10536 10517 10500 10485 10477 10471 10468 10469 10473 10481 10494 10513 10530 10550 10572 10588 10603 10621 10641 10654 10664 10677 10685 10693 10703 10710 10714
10750 10745 10741 10736 10730 10723 10715 10707 10697 10687 10675 10662 10647 10631 10615 10599 10579 10558 10540 10522 10503 10488 10477 10469 10466 10466 10468 10474 10485 10499 10517 10538 10558 10574 10591 10609 10630 10649 10657 10669 10674 10686 10694 10699 10706
10746 10741 10736 10731 10726 10719 10712 10703 10692 10683 10672 10659 10645 10629 10614 10600 10583 10565 10545 10527 10509 10494 10481 10471 10465 10464 10465 10469 10478 10490 10506 10528 10546 10563 10581 10601 10623 10632 10645 10656 10666 10674 10682 10690 10696
10741 10737 10733 10727 10722 10715 10708 10699 10690 10680 10669 10658 10643 10631 10619 10604 10585 10568 10550 10534 10518 10501 10486 10475 10467 10464 10464 10467 10474 10485 10501 10520 10536 10552 10571 10593 10606 10621 10633 10643 10655 10662 10671 10680 10687
10737 10733 10728 10724 10718 10711 10704 10696 10688 10678 10668 10656 10645 10631 10617 10604 10590 10575 10559 10544 10528 10511 10497 10482 10473 10467 10466 10468 10474 10484 10497 10513 10529 10546 10564 10582 10595 10607 10622 10635 10647 10656 10661 10668 10676
10733 10729 10724 10719 10714 10708 10702 10693 10685 10676 10666 10656 10646 10633 10621 10606 10592 10579 10566 10552 10536 10521 10506 10493 10481 10473 10470 10471 10476 10484 10495 10509 10524 10538 10555 10571 10584 10598 10614 10625 10637 10647 10653 10659 10668
10727 10723 10720 10715 10710 10704 10697 10690 10682 10672 10662 10654 10645 10635 10623 10610 10598 10585 10572 10557 10544 10532 10520 10505 10491 10481 10477 10476 10479 10485 10494 10506 10519 10533 10547 10562 10575 10591 10606 10617 10626 10634 10643 10649 10657
10721 10718 10714 10710 10705 10699 10692 10686 10678 10670 10661 10652 10643 10635 10624 10613 10601 10590 10577 10564 10552 10540 10528 10518 10506 10493 10485 10482 10482 10486 10494 10503 10514 10527 10541 10555 10569 10584 10597 10608 10617 10630 10638 10642 10647
10715 10711 10707 10704 10700 10694 10689 10683 10675 10667 10660 10652 10642 10635 10626 10616 10606 10596 10584 10573 10561 10550 10538 10527 10517 10507 10497 10489 10487 10489 10494 10502 10511 10520 10532 10545 10557 10571 10584 10597 10610 10621 10632 10638 10635
10709 10706 10702 10698 10694 10690 10684 10677 10671 10665 10660 10651 10643 10633 10625 10617 10606 10596 10588 10579 10568 10557 10546 10537 10527 10518 10509 10501 10493 10492 10494 10499 10507 10515 10525 10534 10548 10560 10574 10588 10601 10608 10616 10621 10624
10703 10700 10697 10693 10688 10684 10678 10672 10666 10660 10654 10647 10640 10632 10624 10615 10607 10598 10589 10581 10573 10563 10554 10545 10535 10527 10519 10511 10504 10497 10495 10497 10501 10510 10518 10526 10540 10548 10560 10569 10580 10588 10594 10603 10611
10696 10694 10690 10686 10683 10678 10673 10667 10662 10655 10650 10645 10637 10629 10622 10615 10607 10598 10590 10583 10576 10567 10559 10550 10543 10534 10527 10519 10512 10505 10499 10496 10498 10501 10510 10521 10532 10537 10544 10554 10565 10575 10582 10586 10597
10689 10687 10684 10681 10677 10672 10667 10662 10656 10650 10646 10640 10634 10627 10620 10613 10606 10599 10592 10584 10577 10571 10564 10555 10548 10540 10532 10525 10518 10511 10504 10498 10495 10497 10502 10512 10526 10524 10531 10540 10550 10562 10571 10576 10585
10681 10680 10678 10674 10670 10665 10661 10656 10650 10646 10643 10636 10630 10624 10617 10612 10605 10598 10591 10584 10577 10569 10564 10559 10550 10543 10536 10529 10522 10516 10509 10503 10497 10493 10496 10503 10509 10513 10513 10526 10539 10549 10561 10568 10574
10674 10673 10670 10667 10663 10658 10654 10649 10644 10640 10637 10631 10627 10620 10614 10608 10602 10596 10590 10584 10577 10569 10561 10556 10551 10543 10538 10531 10525 10519 10513 10507 10501 10496 10493 10496 10501 10501 10505 10517 10526 10536 10545 10552 10556
10667 10665 10662 10659 10655 10651 10647 10641 10636 10632 10630 10626 10620 10615 10610 10604 10598 10592 10587 10581 10575 10568 10560 10553 10547 10544 10537 10532 10525 10520 10515 10509 10504 10500 10496 10493 10494 10497 10500 10507 10517 10521 10528 10535 10544
10657 10656 10653 10650 10647 10643 10639 10633 10628 10624 10623 10619 10614 10609 10604 10600 10595 10588 10581 10576 10570 10565 10559 10551 10545 10537 10535 10530 10526 10519 10514 10510 10505 10501 10497 10494 10491 10491 10492 10500 10507 10509 10512 10520 10530
10647 10646 10643 10641 10638 10633 10629 10624 10620 10617 10614 10611 10606 10602 10598 10592 10590 10581 10575 10568 10564 10559 10555 10547 10542 10537 10530 10523 10520 10518 10512 10508 10504 10499 10495 10492 10489 10485 10484 10486 10484 10494 10502 10507 10515
10638 10637 10633 10631 10627 10624 10619 10614 10611 10609 10605 10601 10596 10593 10590 10584 10580 10576 10569 10562 10555 10551 10547 10540 10534 10528 10526 10524 10517 10513 10509 10504 10499 10496 10492 10488 10484 10480 10477 10475 10474 10478 10479 10486 10496
10627 10626 10624 10621 10617 10613 10610 10605 10601 10599 10594 10590 10586 10583 10580 10576 10572 10566 10559 10553 10547 10542 10539 10533 10527 10523 10514 10516 10511 10508 10504 10499 10494 10492 10487 10483 10479 10475 10470 10466 10463 10461 10462 10467 10471
10617 10616 10614 10611 10606 10602 10598 10594 10589 10585 10584 10578 10575 10571 10567 10563 10560 10556 10551 10544 10537 10533 10530 10525 10524 10519 10508 10506 10505 10499 10497 10494 10489 10484 10480 10476 10472 10468 10464 10460 10455 10451 10448 10448 10454
10606 10606 10603 10600 10594 10589 10584 10581 10578 10574 10570 10565 10561 10558 10553 10551 10547 10543 10538 10534 10530 10524 10519 10514 10513 10512 10506 10500 10493 10487 10484 10483 10480 10477 10473 10469 10465 10461 10457 10452 10449 10445 10441 10437 10435